Regional Weather Roundup
Issued by NWS

Home | Current Version | Previous Version | Text Only | Print | Product List | Glossary Off
Versions: 1 2 3 4 5 6 7 8 9 10 11 12 13 14 15 16 17 18 19 20 21 22 23 24 25 26 27

000
ASUS45 KTFX 231010
RWRMT
MONTANA REGIONAL WEATHER ROUNDUP
NATIONAL WEATHER SERVICE GREAT FALLS MT
400 AM MDT MON OCT 23 2017

NOTE: "FAIR" INDICATES FEW OR NO CLOUDS BELOW 12000 FEET WITH NO
SIGNIFICANT WEATHER AND/OR OBSTRUCTIONS TO VISIBILITY.

MTZ001>007-043-231100-
WEST OF THE DIVIDE

CITY           SKY/WX    TMP DP  RH WIND       PRES   REMARKS
KALISPELL      PTCLDY    40  31  70 S5        30.41R
MISSOULA       MOCLDY    37  34  89 N3        30.47R
BUTTE          CLOUDY    38  27  64 N3        30.42R
MULLAN PASS    PTCLDY    30  25  81 VRB6      30.44R WCI  24
ANACONDA         N/A     41  27  56 W9        30.44R
DEER LODGE       N/A     37  34  87 CALM      30.45R
EUREKA           N/A     43  28  56 MISG      30.39R
HAMILTON         N/A     41  34  75 E9        30.47S
LIBBY            N/A     34  30  86 CALM      30.42R
$$

MTZ008-052>055-231100-
SOUTHWEST MONTANA

CITY           SKY/WX    TMP DP  RH WIND       PRES   REMARKS
BOZEMAN        CLOUDY    39  27  62 NE8       30.40R
DILLON         CLOUDY    39  23  52 SW10      30.43R
W YELLOWSTONE  CLOUDY    34  23  64 W6        30.46S WCI  29
ENNIS          CLOUDY    39  19  45 CALM      30.49S
THREE FORKS      N/A     40  27  60 E2        30.35R
$$

MTZ009-010-012-014-046-048-049-054-231100-
EAST SLOPES AND CENTRAL MONTANA

CITY           SKY/WX    TMP DP  RH WIND       PRES   REMARKS
CUT BANK       PTCLDY    41  25  53 W17       30.24R
GREAT FALLS    CLEAR     43  20  39 W17       30.28R
MALMSTROM AFB  CLEAR     46  22  38 W16G26    30.28R
HELENA         CLOUDY    45  31  58 W9        30.38R
BOWMANS CRNR     N/A     39  22  49 SW10      30.29R
CHOTEAU          N/A     45  23  42 W21G37    30.26R
FAIRFIELD        N/A     42  21  42 W14       30.26R
POWER            N/A     37  22  54 W7        30.26R WCI  31
RAYNESFORD       N/A     44  21  39 W24G35    30.28R
ULM              N/A     44  22  42 SW12      30.30R
$$

MTZ011-013-016-021-045-047-050-051-231100-
NORTH CENTRAL MONTANA

CITY           SKY/WX    TMP DP  RH WIND       PRES   REMARKS
HAVRE          CLEAR     38  29  70 SW13      30.19R WCI  30
LEWISTOWN      CLEAR     40  22  48 NW9       30.27R
N BAR RANCH      N/A     39  19  45 W15       30.27R WCI  31
CHINOOK          N/A     43  27  52 W15       30.17R
DENTON           N/A     43  22  43 W14       30.22R
GEYSER           N/A     39  23  52 W18       30.27R WCI  30
GRASS RANGE      N/A     42  22  45 W23G30    30.22R
JUDITH GAP       N/A     44  15  30 NW29G39   30.25R
STANFORD         N/A     41  20  43 W17       30.27R
WINIFRED         N/A     45  22  41 W16G24    30.24R
$$

MTZ017>020-022>027-061-062-231100-
NORTHEAST MONTANA

CITY           SKY/WX    TMP DP  RH WIND       PRES   REMARKS
GLASGOW        MOCLDY    42  32  67 W13       30.09R
JORDAN           N/A     46  26  45 W14       30.15R
SIDNEY         PTCLDY    46  35  65 W24G31    30.01R
WOLF POINT     CLOUDY    43  35  73 W12       30.07R
MALTA          PTCLDY    43  28  56 W15G21    30.14R
PLENTYWOOD       N/A     39  32  75 NW20      29.98R WCI  30
POPLAR           N/A     39  34  81 W10       30.05R
$$

MTZ028>42-056>058-231100-
SOUTHCENTRAL AND SOUTHEAST MONTANA

CITY           SKY/WX    TMP DP  RH WIND       PRES   REMARKS
BAKER          PTCLDY    42  35  76 W15       30.09R
BILLINGS       CLOUDY    45  24  43 W20G28    30.28R
LIVINGSTON     MOCLDY    45  23  42 W29       30.34R
MILES CITY     PTCLDY    46  28  49 W16       30.15R
BIG TIMBER     CLEAR     45  23  42 W21G28    30.36S
FORSYTH          N/A     45  25  45 W10       30.19R
HARLOWTON        N/A     42  24  49 W28G37    30.28R
LAUREL           N/A     46  23  39 W14G22    30.30R
$$

REGIONAL REPORTS...DAKOTAS

CITY           SKY/WX    TMP DP  RH WIND       PRES   REMARKS
WILLISTON      CLEAR     43  34  70 SW10      29.98R
MINOT          PTCLDY    43  36  76 W23G29    29.85R
DICKINSON      CLEAR     45  35  68 W25G32    29.96R
BEACH            N/A     45  32  61 W24G31    30.08R
CROSBY         CLOUDY    41  37  87 NW14      29.94R
TIOGA          CLOUDY    41  34  75 NW15G24   29.94R
BISMARCK       PTCLDY    49  38  65 W22G28    29.88R
GRAND FORKS    CLOUDY    50  40  68 W15       29.64R
FARGO          CLOUDY    51  44  77 W12       29.68R
BUFFALO SD       N/A     47  32  56 NW31G40   30.01R
RAPID CITY     CLEAR     50  21  32 NW30G41   30.12R
$$

REGIONAL REPORTS...WYOMING/IDAHO/WASHINGTON

CITY           SKY/WX    TMP DP  RH WIND       PRES   REMARKS
GILLETTE       CLEAR     41  18  39 NW13      30.24R
SHERIDAN       CLOUDY    45  22  40 NW15      30.27R
BUFFALO WY     CLOUDY    42  17  36 NW17      30.28R
CODY           CLOUDY    47  16  29 W13G23    30.34R
YELLOWSTONE LA   N/A     28  20  71 VRB5      30.46R
IDAHO FALLS    CLOUDY    33  33 100 CALM      30.48R
SALMON         CLOUDY    36  30  79 CALM      30.49R
BOISE          FOG       41  41 100 CALM      30.51R VSB 1/4
SPOKANE        PTCLDY    42  32  67 S8        30.48R
$$

REGIONAL REPORTS...ALBERTA

CITY           SKY/WX    TMP DP  RH WIND       PRES   REMARKS
EDMONTON       CLOUDY    39  28  65 W7        30.06R
CALGARY        PTCLDY    46  19  34 W23G33    30.13
LETHBRIDGE     CLEAR     45  25  45 W22G30    30.20R
MEDICINE HAT   CLEAR     39  27  60 W12       30.14R WCI  32
$$

REGIONAL REPORTS...SASKATCHEWAN

CITY           SKY/WX    TMP DP  RH WIND       PRES   REMARKS
SWIFT CURRENT  PTCLDY    37  30  75 W16       30.03R WCI  28
REGINA         CLOUDY    37  34  87 W13       29.93R WCI  29
SASKATOON      MOCLDY    37  36  93 W10       29.92R WCI  30
$$




USA.gov is the U.S. government's official web portal to all federal, state and local government web resources and services.